RH
44 44 43 42 46 47 47 48 49 51 52 53 52 51 50 50 50 50 48 47 42 36 29 19 14 15 20 23 24 24 25 25 24 23 22 23 25 25 27 27 28 27 27
36 38 42 45 47 47 47 48 48 48 48 48 47 48 49 49 50 50 49 47 47 50 52 42 36 33 26 18 16 18 22 26 27 27 26 25 24 25 26 27 28 29 29
30 31 37 44 47 50 53 58 59 59 53 49 48 48 48 46 45 46 48 45 43 42 46 50 47 40 41 41 39 34 24 24 27 29 30 30 35 43 50 32 27 28 28
32 34 35 37 42 44 46 46 46 45 46 48 47 46 46 42 41 41 41 41 41 40 39 40 49 48 44 42 39 36 37 38 30 30 34 34 33 36 42 48 61 62 47
38 40 42 40 40 39 37 37 37 38 39 39 38 38 38 38 37 36 35 35 34 33 31 31 33 39 49 50 49 47 44 43 42 41 38 39 40 36 40 45 44 42 48
43 41 40 39 39 38 39 40 40 40 41 40 38 36 35 35 35 36 36 35 35 36 37 41 44 45 40 41 50 57 53 51 51 53 55 50 46 46 45 41 45 44 42
37 37 37 37 38 39 41 44 45 44 43 45 42 37 35 31 29 34 28 31 32 32 30 30 72 44 56 73 73 87 92 75 60 60 61 58 58 52 53 54 45 53 43
35 37 39 42 45 46 46 47 48 47 46 48 44 39 30 21 27 33 34 28 32 34 34 51 87 82 72 73 75 93 100 100 100 83 71 78 74 63 60 55 54 56 60
46 48 48 47 48 50 52 51 48 44 37 34 35 40 40 34 27 29 28 30 32 38 41 40 44 49 50 50 47 66 75 97 100 100 100 94 88 86 76 68 58 50 55
46 49 53 56 55 46 38 32 27 26 27 28 29 32 34 40 42 30 31 31 32 35 37 37 39 42 46 48 51 52 51 54 63 68 84 97 99 96 89 90 86 77 66
58 57 46 30 18 15 18 22 25 27 29 32 36 40 42 40 39 38 28 32 33 28 28 24 23 21 20 18 31 47 59 72 81 83 71 75 86 99 99 100 98 90 93
34 30 29 35 18 19 23 25 26 29 33 38 40 40 39 37 34 31 29 28 26 26 24 24 21 18 23 31 17 46 94 84 83 89 97 96 93 100 98 99 92 98 100
37 30 22 19 20 21 24 28 31 34 36 40 41 40 40 39 37 35 33 32 30 29 26 23 18 17 25 30 19 25 8 41 68 83 86 90 95 98 98 99 99 97 96
31 21 20 22 24 25 28 32 34 37 40 42 42 38 28 18 12 10 11 12 11 11 13 21 19 17 24 16 15 14 10 8 26 64 82 87 77 64 77 92 92 94 98
33 26 27 28 29 30 33 32 33 31 22 12 6 5 5 4 5 5 6 9 18 20 12 4 8 10 17 15 14 13 11 10 9 8 23 46 57 54 50 39 37 33 31
36 31 31 30 30 31 28 21 12 8 5 4 4 4 5 6 6 8 10 13 20 30 32 11 9 10 11 16 17 16 13 11 9 9 9 12 20 24 25 18 19 37 40
36 33 32 32 31 21 10 7 5 4 4 4 5 6 7 9 10 12 15 16 16 20 56 14 20 11 12 15 15 16 16 14 11 8 8 7 7 8 9 10 10 9 10
38 35 33 29 16 7 6 5 5 5 5 5 6 7 8 11 14 16 16 15 16 19 86 89 42 21 18 28 64 52 20 23 14 10 8 7 6 6 6 6 6 6 5
36 34 28 14 8 7 5 5 5 4 5 5 5 5 9 14 15 15 14 13 17 43 84 87 78 81 83 80 85 84 90 74 31 21 11 9 7 6 6 18 18 7 4
36 28 14 9 7 5 5 5 5 5 6 6 5 7 9 10 10 10 11 14 43 69 62 92 85 81 76 61 63 53 53 50 78 81 27 27 44 62 48 34 38 29 26
28 15 10 8 6 5 6 6 6 6 6 7 6 7 8 9 10 12 16 20 36 84 92 87 82 81 66 52 52 72 71 54 68 90 85 74 65 82 92 92 81 72 63
16 12 9 7 5 6 6 6 6 7 7 7 7 8 9 10 14 18 24 45 51 100 100 95 80 88 49 52 44 39 88 84 71 54 84 82 79 65 46 66 66 81 82
15 11 8 5 5 6 7 7 7 7 7 8 9 11 12 16 20 25 30 40 100 94 85 97 100 62 48 42 44 51 88 76 58 64 91 48 54 65 75 74 85 82 96
15 10 6 6 6 7 8 7 7 7 7 7 11 14 17 21 27 34 48 90 90 55 54 58 46 50 47 32 54 52 55 62 72 81 100 78 85 87 94 81 91 94 99
13 8 6 7 7 8 8 8 7 6 5 6 13 19 30 36 41 58 100 100 72 38 40 38 42 48 34 35 44 58 59 98 86 91 97 95 96 95 93 96 98 96 96
12 8 8 8 9 8 8 8 7 5 6 12 21 28 35 35 39 100 98 97 59 41 36 34 40 34 32 35 45 78 97 99 100 92 97 95 96 95 83 96 96 96 99
Wind_Speed
20 20 21 23 24 26 28 29 30 30 31 32 33 33 34 35 36 38 38 38 38 39 41 40 41 41 42 42 42 42 42 42 42 42 43 43 43 42 41 40 40 39 37
23 24 25 26 28 30 32 34 35 36 36 37 37 38 38 40 40 41 42 41 41 40 41 44 45 44 43 44 45 47 47 46 46 45 45 45 46 46 46 45 45 44 42
22 22 23 25 27 29 31 33 35 36 37 37 38 37 38 38 39 40 42 43 44 43 42 44 45 46 47 48 48 48 49 49 49 49 49 48 47 48 48 48 49 49 48
20 22 23 25 27 28 29 29 31 31 33 35 37 37 39 40 40 41 42 43 45 46 46 46 47 50 52 53 52 52 52 51 51 51 50 50 50 50 50 50 50 50 50
21 22 24 25 26 27 29 29 30 32 32 34 37 37 39 40 41 42 41 42 43 44 44 47 48 50 52 54 55 56 56 56 55 55 54 53 53 53 52 51 51 52 53
22 23 24 25 26 28 30 32 33 34 37 40 42 44 43 44 44 44 45 45 45 44 45 46 46 48 48 50 52 53 55 56 56 56 57 57 56 56 55 54 52 51 51
23 24 25 27 29 30 32 35 37 39 40 43 46 47 47 48 48 50 50 49 49 50 49 49 42 47 46 45 47 48 48 51 52 53 54 57 58 59 58 57 57 55 53
23 25 27 30 32 34 37 39 42 44 44 45 50 52 55 54 52 52 52 53 52 51 51 47 42 42 46 47 47 46 45 47 45 51 53 54 56 59 59 59 58 57 56
26 28 30 33 36 39 41 44 46 47 49 47 46 49 54 57 59 56 54 54 53 52 54 54 54 54 55 57 56 53 51 44 51 48 44 53 58 59 59 59 59 60 59
28 30 34 37 40 42 43 44 44 44 44 46 46 44 44 48 54 62 57 56 54 54 55 56 56 56 55 55 57 59 58 55 56 57 60 60 52 57 60 60 59 59 59
30 33 36 36 38 39 38 38 39 40 42 43 44 46 46 47 48 53 64 60 58 57 58 58 57 55 52 52 54 54 54 57 55 53 59 61 62 57 55 53 57 58 58
29 32 35 38 38 37 37 39 41 41 41 42 43 45 47 50 53 55 60 62 63 62 61 60 59 57 51 47 47 47 51 51 53 51 46 45 50 45 48 51 63 48 39
33 35 36 37 37 38 39 39 40 41 41 42 43 46 48 51 54 57 61 65 68 67 66 63 60 56 52 49 50 52 54 55 54 54 54 55 54 50 52 44 36 68 63
39 38 38 39 39 39 39 39 40 42 43 45 47 49 52 54 56 59 61 63 68 69 68 66 62 59 53 55 55 56 59 55 54 58 56 55 54 55 59 58 53 51 52
41 41 39 38 39 38 39 40 41 44 47 49 52 56 58 60 59 59 58 57 57 62 66 66 64 61 59 58 55 59 61 56 55 54 56 55 54 54 52 50 48 45 47
42 39 38 38 38 39 41 43 46 49 53 56 59 60 60 59 59 56 54 53 51 53 59 63 62 62 61 60 61 62 62 58 56 56 53 53 55 53 51 49 47 48 53
41 38 38 38 39 40 43 47 50 54 57 59 60 61 60 58 57 55 53 53 54 54 51 59 56 56 56 57 59 61 62 61 60 56 55 55 57 57 55 53 51 48 49
39 39 39 40 41 43 46 50 54 57 59 61 62 60 59 57 57 56 56 56 56 52 45 45 50 52 52 50 48 51 54 55 57 58 57 57 58 59 59 57 56 56 54
39 40 41 42 43 45 49 52 56 59 60 61 61 60 59 58 58 57 56 54 49 45 36 39 44 41 43 44 45 43 42 45 44 47 50 52 54 56 57 56 58 56 54
39 40 41 43 45 49 51 55 57 59 61 61 60 58 57 57 56 55 51 45 39 38 38 37 40 43 44 43 46 49 50 44 37 34 36 37 39 37 40 47 51 55 46
41 42 43 44 48 49 53 56 58 60 61 61 60 58 56 54 51 47 43 42 38 35 36 38 42 45 47 48 47 43 43 43 37 31 33 31 31 33 33 38 40 41 41
42 43 44 47 49 50 53 56 59 61 61 61 59 56 53 51 47 43 40 39 36 33 38 40 46 51 51 49 47 45 38 38 41 33 37 37 33 37 40 43 42 41 41
43 44 46 48 49 51 55 57 60 61 60 58 56 53 49 45 42 42 42 39 35 34 38 45 52 53 50 44 41 39 35 36 38 35 39 41 35 36 33 34 35 39 42
45 46 48 49 51 53 56 58 59 58 57 54 50 46 43 41 41 41 41 39 40 46 47 51 48 45 42 39 36 37 38 38 37 35 33 40 39 39 30 26 28 29 24
46 47 49 51 52 54 56 56 56 56 53 49 43 40 40 41 42 37 37 42 51 49 47 44 40 38 36 34 33 34 35 38 39 39 38 41 38 33 28 22 18 22 27
48 49 50 51 52 54 54 55 54 52 47 43 42 43 43 42 41 35 40 46 53 49 45 40 37 34 31 31 31 32 35 39 40 42 36 37 34 28 25 17 14 13 16
Wind_Direction
281 286 289 290 293 297 299 299 299 298 297 295 293 293 293 293 292 292 291 291 289 287 285 281 278 275 273 272 271 271 270 268 266 264 262 260 258 257 256 256 256 255 255
288 289 290 294 295 296 296 295 293 291 290 290 290 290 290 289 289 288 290 290 290 288 287 285 282 280 279 276 272 270 269 268 266 264 262 261 260 259 257 256 255 255 255
294 297 297 296 295 294 292 291 291 292 293 292 292 291 291 291 290 288 288 288 288 287 283 280 280 279 278 277 275 273 272 271 270 269 268 266 264 262 260 259 258 258 257
293 294 295 296 296 297 299 301 300 298 295 292 291 291 291 290 289 288 287 286 285 283 282 279 276 275 275 275 275 274 272 270 268 267 266 265 264 262 262 261 260 259 258
289 291 292 294 298 301 301 300 299 298 297 295 294 292 291 292 292 291 289 287 287 286 285 281 278 274 274 274 273 272 270 270 267 266 265 264 264 263 261 261 260 259 259
287 291 293 295 294 294 295 297 298 298 300 300 298 296 294 293 292 292 289 289 287 285 285 283 281 280 277 275 273 271 270 268 266 265 263 262 261 261 261 261 260 259 259
286 288 288 290 292 295 296 298 301 300 298 298 298 296 297 297 300 297 296 295 295 293 289 287 286 284 281 276 271 271 272 270 267 263 263 260 259 259 259 260 260 256 256
288 291 293 296 298 300 301 302 302 303 304 305 304 304 304 302 301 298 295 294 294 293 291 292 284 283 280 277 275 274 273 267 268 269 262 260 260 258 256 256 256 255 254
294 296 297 299 301 303 304 306 306 305 305 305 304 306 306 305 303 303 300 299 297 297 292 290 286 285 282 279 276 272 271 270 270 265 261 260 259 257 257 257 256 254 253
297 299 301 302 303 303 303 303 304 306 308 308 308 306 303 304 307 305 304 302 301 297 293 292 290 288 285 282 281 279 275 271 267 267 270 267 251 255 255 254 254 254 254
300 300 300 304 308 307 310 313 314 314 313 313 312 312 311 308 306 303 301 303 300 300 299 299 299 295 289 284 279 277 275 272 269 265 260 261 269 256 249 248 257 253 253
305 308 311 313 318 320 319 318 317 316 315 314 313 311 310 309 309 307 303 301 300 299 299 297 295 296 292 288 284 275 269 270 271 269 263 256 257 263 267 252 243 239 243
320 320 322 323 323 321 320 319 318 317 314 311 309 308 308 307 306 304 303 300 298 296 295 294 295 294 290 285 283 275 272 267 266 265 263 265 262 254 252 251 263 239 241
330 331 329 327 324 322 320 319 317 314 313 312 310 308 307 306 305 304 303 302 299 296 293 292 291 290 286 284 284 282 277 273 266 263 263 262 261 266 270 273 277 274 251
331 330 328 325 323 321 319 317 316 315 314 314 314 313 312 311 309 307 305 302 301 299 295 291 289 287 288 286 283 277 276 275 272 269 265 265 264 261 260 264 268 274 275
330 328 325 323 320 319 319 319 318 318 318 318 318 317 316 316 314 311 308 306 303 302 300 299 296 292 291 290 288 285 281 278 272 269 268 268 266 263 262 261 262 263 270
326 324 323 320 319 320 320 319 319 319 320 320 320 319 318 316 313 311 310 308 307 303 297 302 302 302 299 296 292 291 290 288 279 272 269 267 265 264 264 265 265 265 263
324 323 321 319 319 319 319 319 320 321 321 321 321 319 317 315 313 312 310 307 304 302 300 297 301 302 302 299 297 294 293 291 290 284 277 271 267 265 265 262 261 261 263
322 320 318 317 317 318 319 321 321 321 321 322 321 318 317 315 312 310 308 306 304 302 298 298 299 299 297 298 297 296 293 296 293 289 285 281 278 275 274 274 270 264 260
318 316 315 315 317 319 319 320 320 321 323 321 319 318 316 314 312 311 309 308 307 303 303 300 298 297 295 295 294 296 295 295 289 287 286 283 278 279 276 275 270 270 258
315 314 314 315 317 318 319 320 321 322 322 321 319 316 315 314 312 310 309 308 306 304 301 301 299 296 297 301 300 300 295 292 287 286 292 279 270 266 261 258 256 254 246
313 313 313 314 316 318 319 320 322 322 322 319 316 316 315 313 311 310 311 308 310 306 299 300 298 301 305 304 303 299 296 295 290 277 288 281 283 279 273 265 263 250 242
311 312 313 315 316 319 320 320 321 321 319 317 316 316 315 313 312 311 310 310 307 302 303 301 299 302 304 305 301 296 293 291 291 288 289 292 291 285 288 273 261 247 241
312 314 316 316 319 320 319 321 321 320 319 318 316 318 317 317 314 316 317 313 305 310 309 307 303 306 305 305 297 296 299 296 293 293 292 294 293 294 286 271 264 236 232
315 316 317 318 318 319 320 319 321 322 320 317 319 319 318 316 315 319 314 305 304 310 309 305 306 304 305 301 299 299 297 294 296 296 296 294 298 291 284 269 253 244 238
318 319 319 318 318 319 320 322 324 322 321 320 321 319 318 318 320 315 303 298 303 309 309 310 310 308 307 304 302 297 295 292 293 296 299 299 297 291 282 263 254 245 238